FW3025 Weather Reports


Display with metric or nautical units.
time (UTC)temp
F
wind
direction
speed
MPH
gust
MPH
rain 1hr
in
rain 24hr
in
rain mn
in
humidity
%
barometer
mb
20260504044533 47 22 0.0 1.0 0.00 0.00 0.00 57 959.1
20260504043026 47 22 0.0 0.0 0.00 0.00 0.00 57 959.0
20260504040021 48 15 0.0 0.0 0.00 0.00 0.00 54 959.0
20260504034520 49 15 0.0 0.0 0.00 0.00 0.00 54 959.0
20260504033022 49 15 0.0 0.0 0.00 0.00 0.00 54 959.0
20260504030010 49 9 0.0 0.0 0.00 0.00 0.00 54 959.2
20260504024511 49 9 0.0 0.0 0.00 0.00 0.00 53 959.2
20260504023009 49 9 0.0 1.0 0.00 0.00 0.00 53 959.5
20260504020019 50 9 0.0 0.0 0.00 0.00 0.00 53 959.4
20260504014517 50 9 0.0 2.0 0.00 0.00 0.00 51 959.2
20260504013030 50 9 0.0 2.0 0.00 0.00 0.00 51 959.2
20260504010044 51 250 0.0 1.0 0.00 0.00 0.00 49 959.0
20260504004544 51 250 0.0 3.0 0.00 0.00 0.00 49 959.0
20260504003045 51 269 3.0 12.0 0.00 0.00 0.00 48 958.9
20260504000101 52 237 1.0 6.0 0.00 0.00 0.00 49 958.4
20260503234540 52 225 0.0 4.0 0.00 0.00 0.00 48 958.3
20260503233043 52 269 2.0 4.0 0.00 0.00 0.00 47 958.1
20260503230041 52 252 1.0 8.0 0.00 0.00 0.00 46 958.2
20260503224540 53 234 0.0 5.0 0.00 0.00 0.00 48 958.3
20260503223040 53 234 0.0 4.0 0.00 0.00 0.00 47 958.3
20260503220029 54 277 1.0 5.0 0.00 0.00 0.00 44 958.5
20260503214528 53 261 2.0 6.0 0.00 0.00 0.00 45 958.4
20260503213032 53 254 2.0 8.0 0.00 0.00 0.00 46 958.6
20260503210031 52 248 3.0 11.0 0.00 0.00 0.00 49 958.5
20260503204528 52 263 3.0 18.0 0.00 0.00 0.00 47 958.7
20260503203033 53 9 3.0 11.0 0.00 0.00 0.00 46 958.5
20260503200025 54 211 2.0 9.0 0.00 0.00 0.00 39 958.4
20260503194523 54 273 4.0 15.0 0.00 0.00 0.00 39 958.5
20260503193022 54 286 4.0 14.0 0.00 0.00 0.00 37 958.8
20260503190055 56 323 4.0 10.0 0.00 0.00 0.00 37 959.0
20260503184608 55 12 4.0 13.0 0.00 0.00 0.00 37 959.0
20260503183052 54 242 5.0 12.0 0.00 0.00 0.00 39 959.2
20260503180057 53 282 4.0 10.0 0.00 0.00 0.00 39 959.4
20260503174551 52 231 1.0 10.0 0.00 0.00 0.00 43 959.6
20260503173049 52 11 3.0 8.0 0.00 0.00 0.00 40 959.9
20260503170106 50 355 2.0 12.0 0.00 0.00 0.00 41 960.1